Regional Weather Roundup
Issued by NWS

Home | Current Version | Previous Version | Graphics & Text | Print | Product List | Glossary On
Versions: 1 2 3 4 5 6 7 8 9 10 11 12 13 14 15 16 17 18 19 20 21 22 23 24 25 26 27 28 29 30 31 32 33 34 35 36 37 38 39 40 41 42 43 44 45 46 47 48 49 50
000
ASUS43 KMPX 050510
RWRMN
WEATHER ROUNDUP FOR MINNESOTA
NATIONAL WEATHER SERVICE TWIN CITIES/CHANHASSEN MN
1200 AM CDT TUE MAY 05 2015


NOTE: "FAIR" INDICATES FEW OR NO CLOUDS BELOW 12,000 FEET WITH NO
SIGNIFICANT WEATHER AND/OR OBSTRUCTIONS TO VISIBILITY. N/A MEANS
CURRENT SKY AND/OR WEATHER CONDITIONS ARE NOT AVAILABLE.

MNZ060>063-068>070-050600-
   Twin Cities Metro

CITY           SKY/WX    TMP DP  RH WIND       PRES   REMARKS
TWIN CITIES    MOCLDY    59  28  30 NE7       30.18F
ST PAUL        PTCLDY    58  30  34 CALM      30.18F
CRYSTAL        CLEAR     55  30  38 N5        30.18S
BLAINE         CLEAR     54  30  40 N6        30.18F
LAKEVILLE      PTCLDY    46  39  76 CALM      30.18S
EDEN PRAIRIE   PTCLDY    56  33  42 N6        30.17F
SOUTH ST PAUL  PTCLDY    54  37  53 CALM      30.18S
LAKE ELMO      FAIR      48  37  66 CALM      30.19F
$$
MNZ001>005-007-008-013>017-022>024-027-028-050600-
   Northwest Minnesota

CITY           SKY/WX    TMP DP  RH WIND       PRES   REMARKS
BEMIDJI        CLEAR     42  28  56 CALM      30.22R
HALLOCK        CLEAR     50  19  29 SE8       30.16S
ROSEAU         CLEAR     41  30  65 E3        30.19S
WARROAD        CLEAR     43  34  70 CALM      30.20S
THIEF RVR FALL CLEAR     52  25  35 SE7       30.19S
CROOKSTON      CLEAR     48  25  40 SE8       30.19S
FOSSTON        CLEAR     43  21  42 SE3       30.21S
DETROIT LAKES  FAIR      50  34  53 CALM      30.22R
MOORHEAD       CLEAR     50  25  37 SE5       30.20S
PARK RAPIDS    CLEAR     47  30  51 CALM      30.22R
MAHNOMEN       FAIR      47  28  47 SE6       30.21R
$$
MNZ006-009>011-018-025>026-050600-
   North Central Minnesota

CITY           SKY/WX    TMP DP  RH WIND       PRES   REMARKS
BAUDETTE       CLEAR     43  37  79 CALM      30.20S
FLAG ISLAND    CLEAR     50  36  57 CALM      30.18S
INTL FALLS     CLEAR     33  29  85 CALM      30.21S
WASKISH        CLEAR     37  34  87 CALM      30.21S
BIG FORK       CLEAR     36  27  69 CALM      30.23S
LONGVILLE      CLEAR     37  32  81 CALM      30.22F HAZE
GRAND RAPIDS   CLEAR     43  25  49 CALM      30.23S
CRANE LAKE     CLEAR     34  30  86 CALM      30.25R
ORR            CLEAR     43  28  56 CALM      30.21S
COOK           CLEAR     36  28  75 CALM      30.24S
WALKER         FAIR      45  31  59 CALM      30.22S
$$
MNZ012-019>021-037-050600-
   Northeast Minnesota

CITY           SKY/WX    TMP DP  RH WIND       PRES   REMARKS
DULUTH         CLEAR     42  26  53 CALM      30.23R
ELY            CLEAR     36  27  69 CALM      30.24S
HIBBING        CLEAR     37  26  64 NW5       30.23R
EVELETH        CLEAR     36  32  87 CALM      30.25R
DULUTH HARBOR  CLEAR     46  32  57 CALM      30.25R
TWO HARBORS    CLEAR     46  32  57 N5        30.22S
SILVER BAY     CLEAR     37  27  65 CALM      30.23S
GRAND MARAIS     N/A     39  30  70 VRB3      30.24R
G MARAIS ARPRT CLEAR     34  25  69 W6        30.25S WCI  29
$$
MNZ029>031-032-039>041-046>048-054>057-064-050600-
   West Central Minnesota

CITY           SKY/WX    TMP DP  RH WIND       PRES   REMARKS
FERGUS FALLS   CLEAR     50  32  50 E5        30.21R
WHEATON        CLEAR     46  25  42 E6        30.21R
MORRIS         CLEAR     54  30  40 E9        30.19R
ALEXANDRIA     CLEAR     52  29  41 E8        30.22R
ELBOW LAKE     FAIR      56  34  44 E7        30.20R
WADENA         CLEAR     41  32  70 E3        30.21S
GLENWOOD       CLEAR     48  32  53 NE7       30.21S
APPLETON       PTCLDY    50  30  46 E7        30.17S
BENSON         PTCLDY    52  30  43 E5        30.19S
ORTONVILLE     CLEAR     55  30  38 NE8       30.17S
MADISON        PTCLDY    46  28  49 NE6       30.17S
WILLMAR        FAIR      57  32  38 E10       30.20S
$$
MNZ033>034-036-042>043-049>051-058-059-050600-
   Central Minnesota

CITY           SKY/WX    TMP DP  RH WIND       PRES   REMARKS
ST CLOUD       CLEAR     52  23  32 NE6       30.20F
SAUK CENTRE    FAIR      52  31  44 NE3       30.21S
PAYNESVILLE    CLEAR     46  33  62 N3        30.21S
AITKIN         CLEAR     37  28  70 CALM      30.22S
PINE RIVER     CLEAR     39  30  70 CALM      30.25F
BRAINERD       CLEAR     41  29  62 CALM      30.23R
STAPLES        CLEAR     45  30  57 CALM      30.22S
LONG PRAIRIE   FAIR      50  30  46 CALM      30.22S
LITTLE FALLS   CLEAR     43  32  65 CALM      30.22S
LITCHFIELD     PTCLDY    55  28  35 NE6       30.19F
BUFFALO        CLEAR     54  29  39 N6        30.20S
MAPLE LAKE     CLEAR     53  32  45 N5        30.20F
$$
MNZ037-044-045-052-053-050600-
   East Central Minnesota

CITY           SKY/WX    TMP DP  RH WIND       PRES   REMARKS
PRINCETON      CLEAR     50  28  43 N5        30.21F
MORA           CLEAR     37  32  81 CALM      30.24S
CAMBRIDGE      CLEAR     46  34  61 CALM      30.19F
RUSH CITY      PTCLDY    45  30  56 CALM      30.22S
MOOSE LAKE     CLEAR     37  30  75 CALM      30.22R
HINCKLEY       FAIR      37  32  81 CALM      30.23S
CLOQUET        CLEAR     39  23  52 CALM      30.24R
MCGREGOR       CLEAR     39  30  70 CALM      30.23S
$$
MNZ071>073-080-081-089-090-097-098-050600-
   Southwest Minnesota

CITY           SKY/WX    TMP DP  RH WIND       PRES   REMARKS
MONTEVIDEO     PTCLDY    52  30  43 SE6       30.18S
GRANITE FALLS  PTCLDY    51  30  43 NE3       30.19R
CANBY          PTCLDY    47  32  54 CALM      30.18S
MARSHALL       PTCLDY    55  28  35 SE6       30.17R
REDWOOD FALLS  PTCLDY    59  27  29 E7        30.18R
OLIVIA         PTCLDY    52  27  37 E6        30.17R
PIPESTONE      PTCLDY    55  27  33 E7        30.16R
WINDOM         PTCLDY    52  30  43 CALM      30.17R
WORTHINGTON    PTCLDY    50  27  40 E3        30.17R
JACKSON        PTCLDY    52  30  43 E9        30.16S
TRACY          PTCLDY    53  31  42 CALM      30.18R
SLAYTON        PTCLDY    55  28  35 CALM      30.18R
$$
MNZ065>067-074>077-082>085-091>093-050600-
   South Central Minnesota

CITY           SKY/WX    TMP DP  RH WIND       PRES   REMARKS
MANKATO        PTCLDY    57  34  41 E5        30.18R
NEW ULM        PTCLDY    57  28  33 CALM      30.18R
ST JAMES       PTCLDY    54  28  37 NE5       30.17R
FAIRMONT       PTCLDY    55  30  38 NE7       30.15S
GLENCOE        PTCLDY    56  33  43 NE3       30.18R
FARIBAULT      PTCLDY    45  39  81 CALM      30.18R
OWATONNA       MOCLDY    52  36  54 E3        30.17S
WASECA         MOCLDY    52  36  54 NE7       30.17S
ALBERT LEA     MOCLDY    54  39  58 NE6       30.15S
$$
MNZ078>079-086>088-094>096-050600-
   Southeast Minnesota

CITY           SKY/WX    TMP DP  RH WIND       PRES   REMARKS
ROCHESTER      CLOUDY    54  37  52 NE7       30.18S
RED WING       MOCLDY    46  41  81 CALM      30.17S
STANTON        MOCLDY    46  38  73 CALM      30.16S
DODGE CENTER   MOCLDY    55  34  44 NE6       30.17S
WINONA         CLOUDY    54  45  71 CALM      30.17F
AUSTIN         CLOUDY    54  41  62 NE5       30.15S
PRESTON        CLOUDY    54  38  55 NE6       30.17R
$$
ABBREVIATIONS USED IN REMARKS
   TC - TEMPERATURES IN CELSIUS
  WCI - WIND CHILL INDEX
   HX - HEAT INDEX
  VSB - VISIBILITY
$$



USA.gov is the U.S. government's official web portal to all federal, state and local government web resources and services.